User: anonymous   Login
Location: Unspecified
(0.0000°N, 0.0000°E)
Time: 22:35:51
(UTC+00:00)
Language:

Meteor 2-12 - Orbit

View from above orbital plane
View from above orbital plane
View from above satellite
View from above satellite

Ground track
Ground track

The orbit data is extracted from the following two-line orbital elements,

1 15516U 85013A   18202.91031334 +.00000030 +00000-0 +13098-4 0  9990
2 15516 082.5331 115.7286 0016700 118.6883 241.5959 13.85624469691943
Epoch (UTC): 21 July 2018 21:50:51
Eccentricity: 0.0016700
inclination: 82.5331°
perigee height: 932 km
apogee height: 956 km
right ascension of ascending node: 115.7286°
argument of perigee: 118.6883°
revolutions per day: 13.85624469
mean anomaly at epoch: 241.5959°
orbit number at epoch: 69194

The dashed part of the orbit path shows where the satellite is in the earth's shadow,  

DLR